TimeCDT,TemperatureF,Dew PointF,Humidity,Sea Level PressureIn,VisibilityMPH,Wind Direction,Wind SpeedMPH,Gust SpeedMPH,PrecipitationIn,Events,Conditions,WindDirDegrees,DateUTC
12:15 AM,77.0,73.4,89,29.98,10.0,SW,6.9,-,N/A,,Clear,220,2013-08-28 05:15:00
12:35 AM,78.8,71.6,78,29.97,10.0,SW,6.9,-,N/A,,Clear,220,2013-08-28 05:35:00
12:55 AM,78.8,69.8,74,29.97,10.0,SW,6.9,-,N/A,,Clear,230,2013-08-28 05:55:00
1:15 AM,78.8,69.8,74,29.97,10.0,WSW,6.9,-,N/A,,Clear,240,2013-08-28 06:15:00
1:35 AM,78.8,69.8,74,29.97,10.0,WSW,8.1,-,N/A,,Clear,240,2013-08-28 06:35:00
1:55 AM,78.8,69.8,74,29.96,10.0,WSW,6.9,-,N/A,,Clear,240,2013-08-28 06:55:00
2:15 AM,77.0,68.0,74,29.97,10.0,WSW,6.9,-,N/A,,Clear,240,2013-08-28 07:15:00
2:35 AM,77.0,68.0,74,29.97,10.0,WSW,8.1,-,N/A,,Clear,250,2013-08-28 07:35:00
2:55 AM,75.2,68.0,78,29.97,10.0,WSW,6.9,-,N/A,,Clear,250,2013-08-28 07:55:00
3:15 AM,75.2,68.0,78,29.97,10.0,WSW,5.8,-,N/A,,Clear,250,2013-08-28 08:15:00
3:35 AM,73.4,68.0,83,29.97,10.0,WSW,5.8,-,N/A,,Clear,240,2013-08-28 08:35:00
3:55 AM,73.4,68.0,83,29.97,10.0,West,5.8,-,N/A,,Clear,260,2013-08-28 08:55:00
4:15 AM,73.4,68.0,83,29.97,10.0,WSW,5.8,-,N/A,,Clear,240,2013-08-28 09:15:00
4:35 AM,73.4,68.0,83,29.98,10.0,SW,5.8,-,N/A,,Clear,230,2013-08-28 09:35:00
4:55 AM,73.4,66.2,78,29.98,10.0,WSW,5.8,-,N/A,,Clear,240,2013-08-28 09:55:00
5:15 AM,73.4,66.2,78,29.98,10.0,WSW,6.9,-,N/A,,Clear,240,2013-08-28 10:15:00
5:35 AM,73.4,66.2,78,29.99,10.0,SW,6.9,-,N/A,,Clear,230,2013-08-28 10:35:00
5:55 AM,73.4,68.0,83,29.99,10.0,SSW,4.6,-,N/A,,Clear,200,2013-08-28 10:55:00
6:15 AM,71.6,69.8,94,30.00,10.0,SSW,4.6,-,N/A,,Clear,210,2013-08-28 11:15:00
6:35 AM,71.6,69.8,94,30.00,10.0,SW,6.9,-,N/A,,Clear,220,2013-08-28 11:35:00
6:55 AM,73.4,69.8,88,30.01,10.0,SW,3.5,-,N/A,,Clear,220,2013-08-28 11:55:00
7:15 AM,75.2,68.0,78,30.01,10.0,SW,5.8,-,N/A,,Clear,230,2013-08-28 12:15:00
7:35 AM,77.0,68.0,74,30.01,10.0,WSW,6.9,-,N/A,,Clear,240,2013-08-28 12:35:00
7:55 AM,78.8,69.8,74,30.01,10.0,WSW,8.1,-,N/A,,Clear,240,2013-08-28 12:55:00
8:15 AM,78.8,69.8,74,30.01,10.0,WSW,3.5,-,N/A,,Clear,250,2013-08-28 13:15:00
8:35 AM,80.6,69.8,70,30.01,10.0,West,9.2,-,N/A,,Clear,260,2013-08-28 13:35:00
8:55 AM,82.4,71.6,70,30.01,10.0,West,9.2,-,N/A,,Clear,270,2013-08-28 13:55:00
9:15 AM,84.2,69.8,62,30.01,10.0,West,8.1,-,N/A,,Clear,270,2013-08-28 14:15:00
9:35 AM,84.2,71.6,66,30.01,10.0,West,6.9,-,N/A,,Clear,270,2013-08-28 14:35:00
9:55 AM,86.0,69.8,58,30.01,10.0,West,10.4,-,N/A,,Clear,260,2013-08-28 14:55:00
10:15 AM,87.8,71.6,58,30.00,10.0,West,6.9,-,N/A,,Clear,270,2013-08-28 15:15:00
10:35 AM,87.8,71.6,58,30.00,10.0,West,8.1,-,N/A,,Clear,260,2013-08-28 15:35:00
10:55 AM,89.6,71.6,55,30.01,10.0,West,10.4,-,N/A,,Clear,270,2013-08-28 15:55:00
11:15 AM,89.6,71.6,55,30.00,10.0,West,8.1,-,N/A,,Clear,260,2013-08-28 16:15:00
11:35 AM,91.4,71.6,52,30.00,10.0,West,9.2,17.3,N/A,,Clear,280,2013-08-28 16:35:00
11:55 AM,91.4,71.6,52,30.00,10.0,West,8.1,17.3,N/A,,Clear,260,2013-08-28 16:55:00
12:15 PM,91.4,71.6,52,29.99,10.0,West,11.5,-,N/A,,Clear,260,2013-08-28 17:15:00
12:35 PM,93.2,71.6,49,29.99,10.0,West,10.4,17.3,N/A,,Clear,270,2013-08-28 17:35:00
12:55 PM,93.2,71.6,49,29.98,10.0,West,13.8,-,N/A,,Clear,270,2013-08-28 17:55:00
1:15 PM,93.2,71.6,49,29.98,10.0,West,10.4,16.1,N/A,,Clear,260,2013-08-28 18:15:00
1:35 PM,95.0,73.4,49,29.99,10.0,West,10.4,-,N/A,,Clear,280,2013-08-28 18:35:00
1:55 PM,95.0,71.6,47,29.98,10.0,West,10.4,-,N/A,,Clear,260,2013-08-28 18:55:00
2:15 PM,96.8,73.4,47,29.98,10.0,WNW,6.9,-,N/A,,Clear,290,2013-08-28 19:15:00
2:35 PM,96.8,73.4,47,29.98,10.0,West,6.9,-,N/A,,Clear,280,2013-08-28 19:35:00
2:55 PM,96.8,71.6,44,29.97,10.0,West,9.2,16.1,N/A,,Clear,280,2013-08-28 19:55:00
3:15 PM,96.8,71.6,44,29.97,10.0,West,9.2,-,N/A,,Clear,280,2013-08-28 20:15:00
3:35 PM,96.8,71.6,44,29.97,10.0,West,5.8,-,N/A,,Clear,280,2013-08-28 20:35:00
3:55 PM,96.8,71.6,44,29.96,10.0,West,9.2,-,N/A,,Clear,280,2013-08-28 20:55:00
4:15 PM,96.8,71.6,44,29.96,10.0,West,9.2,-,N/A,,Clear,270,2013-08-28 21:15:00
4:35 PM,96.8,73.4,47,29.96,10.0,West,5.8,-,N/A,,Clear,280,2013-08-28 21:35:00
4:55 PM,96.8,73.4,47,29.96,10.0,West,6.9,-,N/A,,Clear,270,2013-08-28 21:55:00
5:15 PM,95.0,71.6,47,29.96,10.0,West,8.1,-,N/A,,Clear,280,2013-08-28 22:15:00
5:35 PM,95.0,73.4,49,29.96,10.0,West,5.8,-,N/A,,Clear,270,2013-08-28 22:35:00
5:55 PM,93.2,73.4,52,29.96,10.0,West,4.6,-,N/A,,Clear,260,2013-08-28 22:55:00
6:15 PM,93.2,75.2,56,29.96,10.0,West,4.6,-,N/A,,Clear,260,2013-08-28 23:15:00
6:35 PM,91.4,75.2,59,29.97,10.0,WSW,3.5,-,N/A,,Clear,250,2013-08-28 23:35:00
6:55 PM,89.6,77.0,66,29.96,10.0,WSW,3.5,-,N/A,,Clear,240,2013-08-28 23:55:00
7:15 PM,86.0,75.2,70,29.96,10.0,WSW,3.5,-,N/A,,Clear,240,2013-08-29 00:15:00
7:35 PM,84.2,75.2,74,29.96,10.0,SW,4.6,-,N/A,,Clear,230,2013-08-29 00:35:00
7:55 PM,82.4,75.2,79,29.97,10.0,SW,3.5,-,N/A,,Clear,230,2013-08-29 00:55:00
8:15 PM,82.4,73.4,74,29.97,10.0,WSW,4.6,-,N/A,,Clear,240,2013-08-29 01:15:00
8:35 PM,80.6,73.4,79,29.97,10.0,SW,4.6,-,N/A,,Clear,230,2013-08-29 01:35:00
8:55 PM,80.6,73.4,79,29.98,10.0,WSW,4.6,-,N/A,,Clear,240,2013-08-29 01:55:00
9:15 PM,80.6,73.4,79,29.98,10.0,SW,4.6,-,N/A,,Clear,230,2013-08-29 02:15:00
9:35 PM,80.6,73.4,79,29.98,10.0,SW,5.8,-,N/A,,Clear,230,2013-08-29 02:35:00
9:55 PM,80.6,71.6,74,29.99,10.0,WSW,4.6,-,N/A,,Clear,240,2013-08-29 02:55:00
10:15 PM,78.8,73.4,83,29.99,10.0,WSW,3.5,-,N/A,,Clear,240,2013-08-29 03:15:00
10:35 PM,78.8,71.6,78,29.99,10.0,Calm,Calm,-,N/A,,Clear,0,2013-08-29 03:35:00
10:55 PM,77.0,73.4,89,29.99,10.0,Calm,Calm,-,N/A,,Clear,0,2013-08-29 03:55:00
11:15 PM,75.2,73.4,94,29.99,10.0,Calm,Calm,-,N/A,,Clear,0,2013-08-29 04:15:00
11:35 PM,75.2,73.4,94,29.99,10.0,Calm,Calm,-,N/A,,Clear,0,2013-08-29 04:35:00
11:55 PM,75.2,73.4,94,30.00,10.0,North,4.6,-,N/A,,Clear,10,2013-08-29 04:55:00